Von / Nach
Hinflug - Rückflug
Erwachsene / Kinder
Promocode
Nächste Ankünfte Flughafen St.Gallen-Altenrhein

ZeitErw.vonFlugInfo
14:1514:15WienPE103
planmässig
17:3517:35WienPE105
planmässig
20:5520:55WienPE107
planmässig
Nächste Abflüge Flughafen St.Gallen-Altenrhein

ZeitGeplantnachFlugInfo
09:5009:50WienPE102
planmässig
14:5514:55WienPE104
planmässig
18:1518:15WienPE106
planmässig

Flugplan

Bitte wählen Sie Ihren gewünschten Abflug- und Zielflughafen aus.


Live aus Altenrhein
LIVE
LSZR 220550Z 21002KT CAVOK M01/M02 Q1030 NOSIG RMK A
Zeitraffer heute
2019-03-22 00:14:41
LSZR 212250Z AUTO VRB02KT CAVOK 01/M01 Q1030
Zeitraffer gestern
2019-03-21 00:14:24
LSZR 202250Z AUTO VRB01KT CAVOK 01/M01 Q1033

Wien

Samstags-Special: Altenrhein-Wien für EUR 89.-.

 

Jetzt buchen

Menorca

Ab EUR 299.- hin & zurück.

 

Jetzt buchen

Kalabrien

Ab EUR 329.- hin & zurück.

 

Jetzt buchen

Ibiza

Ab EUR 279.- hin & zurück.

 

Jetzt buchen

Mallorca

Ab EUR 349.- hin & zurück.

 

Jetzt buchen

General Aviation

Business & General Aviation LSZR.

 

More information

 

 Shuttlebus


Nutzen Sie unseren

Shuttlebus zwischen Altenrhein

und Dornbirn & Bregenz.

 

Mehr dazu

 

People's Online-Shop


Von der Überraschung an

Bord über Badetücher bis

zum Flugzeugmodell.

 

Mehr dazu


News


Aktuelles von People's

und dem Flughafen

St.Gallen-Altenrhein.

 

Mehr dazu

 

Ad-hoc Charter


Chartern Sie eine unserer

Embraer170 für Ihren eigenen

Anlass oder ACMI-Einsätze.


Mehr dazu

  

 

Teile dein People's-Erlebnis mit uns:

 

#peoplesairline bei Instagram